Regional Weather Roundup
Issued by NWS

Home | Current Version | Previous Version | Graphics & Text | Print | Product List | Glossary Off
Versions: 1 2 3 4 5 6 7 8 9 10 11 12 13 14 15 16 17 18 19 20 21 22 23 24 25 26 27 28 29 30 31 32 33 34 35 36 37 38 39 40 41 42 43 44 45 46 47 48 49 50

025
ASUS43 KTOP 260359
RWRKS

WEATHER ROUNDUP FOR KANSAS
NATIONAL WEATHER SERVICE GOODLAND KS
1100 PM CDT SUN JUN 25 2017

NOTE:  "FAIR" INDICATES FEW OR NO CLOUDS BELOW 12,000 FEET WITH NO
SIGNIFICANT WEATHER AND/OR OBSTRUCTIONS TO VISIBILITY.

KSZ001>006-013>018-027>032-041>047-260500-
NORTHWEST KANSAS

CITY           SKY/WX    TMP DP  RH WIND       PRES   REMARKS
GOODLAND       CLOUDY    59  58  96 SE9       30.30R
HAYS           MOCLDY    56  54  93 N5        30.28R
HILL CITY      PTCLDY    58  57  97 CALM      30.29R
RUSSELL        MOCLDY    58  54  86 CALM      30.25R
$$

KSZ061>065-074>080-084>089-260500-
SOUTHWEST KANSAS

CITY           SKY/WX    TMP DP  RH WIND       PRES   REMARKS
DODGE CITY     MOCLDY    64  59  83 E9        30.25R
ELKHART          N/A     62  48  60 E17         N/A
GARDEN CITY    MOCLDY    65  56  72 E7        30.25R
GREAT BEND     CLOUDY    59  56  89 E3        30.26R
LIBERAL        CLOUDY    63  56  78 E14       30.23R
$$

KSZ066>073-081>083-090>101-260500-
SOUTHEAST KANSAS

CITY           SKY/WX    TMP DP  RH WIND       PRES   REMARKS
CHANUTE          N/A    N/A N/A N/A MISG      30.24R
COFFEYVILLE    MOCLDY    68  55  63 NE6       30.23R
HUTCHINSON     CLOUDY    63  53  70 E7        30.24R
MEDICINE LODGE   N/A     64  59  83 NE7       30.22S
NEWTON         CLOUDY    60  54  80 E6        30.26R
PARSONS        PTCLDY    65  57  75 CALM      30.25R
WICHITA INTL   CLOUDY    63  54  72 E8        30.24R
WICHITA JABRA  CLOUDY    59  56  89 E5        30.24R
WINFIELD       CLEAR     64  56  75 E8        30.23R
$$

KSZ007>012-019>026-033>040-048>060-102>105-260500-
NORTHEAST KANSAS

CITY           SKY/WX    TMP DP  RH WIND       PRES   REMARKS
CONCORDIA      CLEAR     56  53  90 S7        30.25R
EMPORIA        MOCLDY    60  56  86 CALM      30.25R
LAWRENCE       CLEAR     53  53 100 CALM      30.24S
MANHATTAN      CLOUDY    59  58  96 CALM      30.25R
OLATHE IND     PTCLDY    56  54  93 NE6       30.24S
OLATHE EXE     CLEAR     58  53  84 CALM      30.24S
SALINA         MOCLDY    64  55  72 E5        30.25R
TOPEKA BILLARD CLEAR     57  56  96 CALM      30.24R
TOPEKA FORBES  CLOUDY    58  57  97 CALM      30.24R
$$




USA.gov is the U.S. government's official web portal to all federal, state and local government web resources and services.